Traverse City, MI

7:38 PM EDT on September 25, 2016 (GMT -0400)
Cherry Capital

Weather History for KTVC - December, 2012

Change the Weather History Date:

Sunday, December 30, 2012

  Actual Average Record
Temperature  
Mean Temperature 26 °F 23 °F  
Max Temperature 29 °F 29 °F 56 °F (1936)
Min Temperature 22 °F 17 °F -13 °F (1976)
Degree Days  
Heating Degree Days 39 42  
Month to date heating degree days 947 1146  
Since 1 July heating degree days 2429 2765  
Moisture  
Dew Point 20 °F    
Average Humidity 77    
Maximum Humidity 85    
Minimum Humidity 68    
Precipitation  
Precipitation T in 0.08 in 0.85 in (1971)
Month to date precipitation 2.58 2.40  
Year to date precipitation 30.43 32.96  
Snow  
Snow 0.00 in - - ()
Snow Depth 5.00 in    
Sea Level Pressure  
Sea Level Pressure 30.11 in    
Wind  
Wind Speed 6 mph (WSW)    
Max Wind Speed 12 mph    
Max Gust Speed 22 mph    
Visibility 8 miles    
Events Snow    
T = Trace of Precipitation, MM = Missing Value Source: NWS Daily Summary

Daily Weather History Graph

Daily Weather History Graph

Search for Another Location

Airport or City:

Trip Planner

Search our weather history database for the weather conditions in past years. The results will help you decide how hot, cold, wet, or windy it might be!

Date:

Astronomy

Dec. 30, 2012 Rise Set
Actual Time 8:19 AM EST 5:10 PM EST
Civil Twilight 7:46 AM EST 5:44 PM EST
Nautical Twilight 7:09 AM EST 6:21 PM EST
Astronomical Twilight 6:33 AM EST 6:56 PM EST
Moon 7:48 PM EST (12/30) 9:22 AM EST (12/30)
Length of Visible Light 9h 58m
Length of Day
8h 51m
Waning Gibbous, 95% of the Moon is Illuminated
Dec 30
Waning Gibbous
Jan 4
Last Quarter
Jan 11
New
Jan 18
First Quarter
Jan 26
Full

Hourly Weather History & Observations

Time (EST) Temp. Windchill Dew Point Humidity Pressure Visibility Wind Dir Wind Speed Gust Speed Precip Events Conditions
12:04 AM 28.4 °F 22.2 °F 24.8 °F 86% 30.03 in 3.0 mi West 5.8 mph - 0.00 in Snow Light Snow
12:17 AM 28.4 °F 23.3 °F 24.8 °F 86% 30.03 in 2.5 mi West 4.6 mph - 0.00 in Snow Light Snow
12:20 AM 28.4 °F 22.2 °F 24.8 °F 86% 30.03 in 3.0 mi West 5.8 mph - 0.00 in Snow Light Snow
12:31 AM 28.4 °F 22.2 °F 24.8 °F 86% 30.03 in 3.0 mi West 5.8 mph - 0.00 in Snow Light Snow
12:46 AM 28.4 °F 21.2 °F 24.8 °F 86% 30.03 in 2.5 mi West 6.9 mph - 0.00 in Snow Light Snow
12:53 AM 28.0 °F 21.7 °F 25.0 °F 88% 30.06 in 3.0 mi West 5.8 mph - 0.00 in Snow Light Snow
1:31 AM 28.4 °F 24.6 °F 24.8 °F 86% 30.04 in 8.0 mi WSW 3.5 mph - 0.00 in Snow Light Snow
1:53 AM 28.0 °F 21.7 °F 23.0 °F 81% 30.06 in 9.0 mi WSW 5.8 mph - 0.00 in   Overcast
2:53 AM 28.9 °F 20.4 °F 21.0 °F 72% 30.09 in 10.0 mi West 9.2 mph - N/A   Overcast
3:53 AM 28.0 °F 22.8 °F 21.9 °F 78% 30.11 in 10.0 mi WSW 4.6 mph - N/A   Overcast
4:53 AM 28.0 °F - 21.0 °F 75% 30.12 in 10.0 mi Calm Calm - N/A   Overcast
5:23 AM 28.4 °F 23.3 °F 21.2 °F 74% 30.09 in 10.0 mi SW 4.6 mph - N/A   Overcast
5:53 AM 28.0 °F 22.8 °F 21.0 °F 75% 30.13 in 9.0 mi WSW 4.6 mph - 0.00 in   Overcast
6:48 AM 26.6 °F 18.2 °F 21.2 °F 80% 30.13 in 10.0 mi WSW 8.1 mph - 0.00 in   Overcast
6:53 AM 28.0 °F 20.8 °F 19.9 °F 72% 30.17 in 10.0 mi WSW 6.9 mph - 0.00 in   Overcast
7:48 AM 26.6 °F 17.5 °F 19.4 °F 74% 30.15 in 10.0 mi WSW 9.2 mph - N/A   Overcast
7:53 AM 27.0 °F 18.0 °F 19.0 °F 72% 30.18 in 10.0 mi WSW 9.2 mph - N/A   Overcast
8:53 AM 26.1 °F 19.4 °F 19.0 °F 75% 30.19 in 10.0 mi WSW 5.8 mph - N/A   Overcast
9:53 AM 26.1 °F 21.9 °F 19.9 °F 78% 30.19 in 5.0 mi Variable 3.5 mph - 0.00 in Snow Light Snow
10:53 AM 26.1 °F 17.6 °F 19.0 °F 75% 30.21 in 9.0 mi SW 8.1 mph - 0.00 in Snow Light Snow
11:53 AM 26.1 °F 18.4 °F 18.0 °F 71% 30.21 in 9.0 mi SW 6.9 mph - 0.00 in Snow Light Snow
12:53 PM 26.1 °F 19.4 °F 18.0 °F 71% 30.19 in 10.0 mi WSW 5.8 mph - 0.00 in   Overcast
1:53 PM 26.1 °F 18.4 °F 18.0 °F 71% 30.19 in 10.0 mi SW 6.9 mph - N/A   Overcast
2:53 PM 25.0 °F 14.2 °F 17.1 °F 72% 30.17 in 10.0 mi SW 11.5 mph 16.1 mph N/A   Overcast
3:53 PM 25.0 °F 17.1 °F 18.0 °F 75% 30.17 in 10.0 mi WSW 6.9 mph - N/A   Overcast
4:53 PM 24.1 °F 19.7 °F 17.1 °F 75% 30.15 in 10.0 mi Variable 3.5 mph - N/A   Overcast
5:15 PM 24.8 °F - 15.8 °F 69% 30.11 in 10.0 mi Calm Calm - N/A   Mostly Cloudy
5:53 PM 23.0 °F 18.4 °F 16.0 °F 74% 30.14 in 10.0 mi SSW 3.5 mph - N/A   Scattered Clouds
6:21 PM 23.0 °F 17.0 °F 15.8 °F 74% 30.11 in 10.0 mi Variable 4.6 mph - N/A   Mostly Cloudy
6:53 PM 24.1 °F 17.0 °F 17.1 °F 75% 30.14 in 10.0 mi Variable 5.8 mph - N/A   Overcast
7:53 PM 25.0 °F 16.3 °F 19.0 °F 78% 30.13 in 10.0 mi SW 8.1 mph - N/A   Overcast
8:45 PM 26.6 °F 20.0 °F 19.4 °F 74% 30.08 in 10.0 mi Variable 5.8 mph - N/A   Mostly Cloudy
8:53 PM 26.1 °F 17.6 °F 19.9 °F 78% 30.11 in 10.0 mi SSW 8.1 mph - N/A   Mostly Cloudy
9:53 PM 26.1 °F 19.4 °F 19.9 °F 78% 30.07 in 10.0 mi SSW 5.8 mph - N/A   Clear
10:53 PM 27.0 °F 20.5 °F 21.0 °F 78% 30.04 in 10.0 mi SSW 5.8 mph - N/A   Clear
11:53 PM 28.9 °F 19.8 °F 23.0 °F 78% 30.02 in 10.0 mi SSW 10.4 mph 21.9 mph N/A   Overcast